Location: Glendale
(37.4556°N, 88.6714°W)
Time: 18:22:37
(UTC+00:00)

Lacrosse 5 - Pass Details

Date: 08 December 2019
Orbit: 717 x 722 km, 57.0° (Epoch: 10 January)

Event Time Altitude Azimuth Distance (km) Brightness Sun altitude
Exits shadow 10:00:37 30° 117° (ESE) 1,262 3.5 -34.1°
Drops below altitude 10° 10:03:15 10° 128° (SE) 2,195 5.0 -33.6°
Sets 10:05:38 0° 131° (SE) 3,113 5.9 -33.1°
